Regional Weather Roundup
Issued by NWS Newport/Morehead, NC

Current Version | Previous Version | Text Only | Print | Product List | Glossary On
Versions: 1 2 3 4 5 6 7 8 9 10 11 12 13 14 15 16 17 18 19 20 21 22 23 24 25 26 27 28 29 30 31 32 33 34 35 36 37 38 39 40 41 42 43 44 45 46 47 48 49 50
000
ASUS42 KMHX 281225
RWRMHX
WEATHER ROUNDUP FOR EASTERN NORTH CAROLINA
NATIONAL WEATHER SERVICE NEWPORT/MOREHEAD CITY NC
800 AM EDT WED SEP 28 2016

NOTE: "FAIR" INDICATES FEW OR NO CLOUDS BELOW 12,000 FEET
WITH NO SIGNIFICANT WEATHER AND/OR OBSTRUCTIONS TO VISIBILITY

NCZ015>017-031-032-045>047-102-103-281300-
NORTH COAST

CITY           SKY/WX    TMP DP  RH WIND       PRES   REMARKS
EDENTON        SUNNY     71  71 100 CALM      29.95S
ELIZABETH CITY MOSUNNY   69  69 100 CALM      29.95R
KITTY HAWK     MOSUNNY   73  73 100 CALM      29.94S
MANTEO         MOSUNNY   73  73 100 E3        29.95S

$$

NCZ045>047-081-094-103-104-281300-
CENTRAL COAST

CITY           SKY/WX    TMP DP  RH WIND       PRES   REMARKS
FRISCO         SUNNY     75  72  90 CALM      29.94R

$$

NCZ095-097-098-100-101-281300-
SOUTHERN COAST

CITY           SKY/WX    TMP DP  RH WIND       PRES   REMARKS
BEAUFORT       SUNNY     72  71  97 CALM      29.94F
CEDAR ISLAND   NOT AVBL
JACKSONVILLE   MOSUNNY   69  68  96 CALM      29.95R
PINEY ISLAND   SUNNY    N/A N/A N/A CALM      29.94S
WILMINGTON     MOSUNNY   71  69  93 CALM      29.95S


$$

NCZ011>013-027>030-043-044-078>080-089-090>093-098-281300-
COASTAL PLAIN

CITY           SKY/WX    TMP DP  RH WIND       PRES   REMARKS
AHOSKIE        MOSUNNY   67  67  98 CALM      29.94S
CLINTON        SUNNY     69  69 100 CALM      29.96R
ELIZABETHTOWN  CLEAR     69  69 100 CALM      29.96R
GOLDSBORO      MOSUNNY   71  71 100 S3        29.93R
GREENVILLE     MOSUNNY   72  70  94 S3        29.96S
HAVELOCK       SUNNY     68  67  96 CALM      29.95S FOG
KENANSVILLE    SUNNY     68  68 100 CALM      29.95R FOG
KINSTON        SUNNY     70  70 100 CALM      29.95R
NEW BERN       SUNNY     70  68  93 CALM      29.97R
RICHLANDS      SUNNY     69  68  96 CALM      29.95S
ROCKY MOUNT    PTSUNNY   70  70 100 CALM      29.94R THUNDER
WASHINGTON     SUNNY     67  66  97 CALM      29.95S
WHITEVILLE     CLEAR     71  69  93 SW3       29.95R

$$

AMZ130-135-150-152-154-156-158-170-250-252-270-ANZ085-086-088-633-658-670-281300-
MARINE OBSERVATIONS

STATION/POSITION TIME  TEMP    WIND        PRES    WAVE   SWELL
                       AIR SEA DIR/SP/G            HT/PER HT/PER
                 (UTC) (F)     (DEG/KT/KT) (MB)    (FT/S) (FT/S)
CHESAPEAKE LIGHT NOT AVBL
64 E VA BEACH    1150   74 74   30/ 12/ 14 1013.7    5/ 6   5/ 6
DUCK             1200   74 76   20/  7/  8 1013.5
2 E DUCK         1141      76                N/A     4/ 7   2/12
OREGON INLET     1200   73 76  330/  3/  5 1014.2
13E OREGON INLT  1200      76                N/A     4/ 8   3/ 8
HATTERAS CG      1200   75 76  340/  7/  8 1013.7
DIAMOND BUOY     1150   77 84  340/ 12/ 14 1013.3    4/12   3/12
CAPE LOOKOUT     1200   75      50/  1/  2 1013.6
BEAUFORT LAB     1200   75 76  130/  1/  2 1013.3
30 SE NEW RVR IN 1208   80 83  360/  2/  2 1014.1
30 SE NEW RVR IN 1155      83                N/A     3/ 7   2/12
27 SE WRIGHTSVLE 1208   80 81   CALM  /  2 1014.3
5 SE WRIGHTSVLE  1108   79 80  190/  2/  6 1014.9
225 S CAPE HAT   1150   81 83  190/  8/  8 1014.0    4/ 6   3/ 6
41 SE CHARLESTON 1150   80 82  220/  4/  6 1013.4    3/11   3/11

$$



USA.gov is the U.S. government's official web portal to all federal, state and local government web resources and services.